Location: Montreal
(45.5000°N, 73.5833°W)
Time: 10:47:16
(UTC-04:00)

Envisat - Pass Details

Date: 16 October 2017
Orbit: 764 x 766 km, 98.2° (Epoch: 19 October)

Event Time Altitude Azimuth Distance (km) Brightness Sun altitude
Exits shadow 20:46:16 72° 307° (NW) 807 3.1 -28.5°
Drops below altitude 10° 20:50:57 10° 344° (NNW) 2,312 5.8 -29.3°
Sets 20:53:17 0° 346° (NNW) 3,242 6.7 -29.7°
